Location: Breitenfeld
(46.8500°N, 15.6333°E)
Time: 17:08:05
(UTC+00:00)

MOS 1 Rocket - Visible Passes

Search period start: 04 August 2021 00:00
Search period end: 14 August 2021 00:00
Orbit: 615 x 829 km, 97.4° (Epoch: 04 August)

Date Brightness Start Highest point End Pass type
(mag) Time Alt. Az. Time Alt. Az. Time Alt. Az.
04 Aug 6.6 01:14:55 10° E 01:17:34 14° NE 01:20:14 10° NNE visible
04 Aug 3.9 02:49:33 10° SSE 02:54:52 77° ENE 03:00:20 10° N visible
05 Aug 5.6 02:01:10 10° SE 02:05:52 32° ENE 02:10:37 10° N visible
06 Aug 6.6 01:14:30 10° E 01:17:12 14° NE 01:19:54 10° NNE visible
06 Aug 3.9 02:49:10 10° SSE 02:54:31 78° ENE 02:59:59 10° N visible
07 Aug 5.5 02:00:47 10° SE 02:05:30 32° ENE 02:10:16 10° N visible
08 Aug 6.6 01:14:05 10° E 01:16:49 14° NE 01:19:34 10° NNE visible
08 Aug 3.9 02:48:47 10° SSE 02:54:09 78° ENE 02:59:38 10° N visible
09 Aug 5.5 02:00:23 10° SE 02:05:08 32° ENE 02:09:54 10° N visible
10 Aug 6.6 01:13:40 10° E 01:16:27 14° ENE 01:19:13 10° NNE visible
10 Aug 3.9 02:48:24 10° SSE 02:53:48 79° ENE 02:59:15 10° N visible
11 Aug 5.5 02:00:00 10° SE 02:04:46 33° ENE 02:09:33 10° N visible
12 Aug 6.6 01:13:17 10° E 01:16:05 14° ENE 01:18:51 10° NNE visible
12 Aug 3.8 02:48:01 10° SSE 02:53:27 80° ENE 02:58:53 10° N visible
13 Aug 5.5 01:59:37 10° SE 02:04:24 33° ENE 02:09:10 10° N visible
